Hourly Data Report for July 06, 2021

WINDSOR A
ONTARIO
Current Station Operator: NAVCAN

42°16'34.000" N
82°57'19.000" W
189.60 m
6139530
71538
YQG

Download Data

Hourly Data (July 2021)
Hourly Data Report for July 6, 2021
TIME
LST
Temp Definition
°C
Dew Point Definition
°C
Rel Hum Definition
%
Precip. Amount Definition
mm

Wind Dir Definition
10's deg

Wind Spd Definition
km/h
Visibility Definition
km
Stn Press Definition
kPa
Hmdx Definition


Wind Chill Definition


Weather Definition


00:00 26.0 21.1 74 0.0 24 18 16.1 99.25 35   LegendNANA
01:00 25.8 21.3 76 0.0 24 22 16.1 99.22 34   LegendNANA
02:00 25.5 21.3 77 0.0 24 22 16.1 99.23 34   LegendNANA
03:00 24.9 21.3 80 0.0 24 18 16.1 99.23 34   LegendNANA
04:00 24.5 21.1 81 0.0 24 22 16.1 99.24 33   LegendNANA
05:00 24.1 21.1 83 0.0 24 18 16.1 99.23 33   LegendNANA
06:00 24.5 21.4 83 0.0 23 18 16.1 99.26 33   LegendNANA
07:00 24.8 21.4 81 0.0 25 18 16.1 99.34 34   LegendNANA
08:00 25.8 22.0 79 0.0 25 15 16.1 99.36 35   LegendNANA
09:00 27.3 22.3 74 0.0 23 15 16.1 99.36 37   LegendNANA
10:00 29.1 22.0 65 0.0 28 21 16.1 99.35 38   LegendNANA
11:00 30.1 22.6 64 0.0 27 18 16.1 99.33 40   LegendNANA
12:00 31.0 22.1 59 0.0 26 15 16.1 99.32 40   LegendNANA
13:00 31.7 22.3 57 0.0 27 21 16.1 99.28 41   LegendNANA
14:00 32.3 21.5 52 0.0 30 15 14.5 99.26 41   LegendNANA
15:00 32.8 22.3 53 0.0 27 21 16.1 99.21 42   LegendNANA
16:00 29.9 20.4 56 0.0 24 30 16.1 99.19 38   Thunderstorms
17:00 27.3 22.5 75 5.6 16 13 16.1 99.19 37   Thunderstorms
18:00 26.8 22.5 77 0.0 17 11 16.1 99.17 37   LegendNANA
19:00 27.2 23.0 78 0.0 33 8 16.1 99.19 37   LegendNANA
20:00 25.4 21.3 78 0.0 8 15 16.1 99.21 34   LegendNANA
21:00 23.8 22.4 92 0.0 LegendMM 4 16.1 99.25 33   LegendNANA
22:00 23.9 22.6 92 0.0   0 16.1 99.26 34   LegendNANA
23:00 22.9 21.7 93 0.0 12 4 16.1 99.26 32   LegendNANA

Notes on Data Quality.

Legend

  • E = Estimated
  • M = Missing
  • NA = Not Available*
  • [empty] = Indicates an unobserved value
Date modified: